Tracking 23611 objects as of 17-Sep-2021
HD Live streaming from Space Station
objects crossing your sky now
Track INSPIRATION-4

DMSP 5D-2 F13 DEB

Track DMSP 5D-2 F13 DEB now!
10-day predictions


NORAD ID: 40604
Int'l Code: 1995-015FB
Perigee: 608.2 km
Apogee: 783.6 km
Inclination: 98.7 °
Period: 98.5 minutes
Semi major axis: 7066 km
RCS: Unknown
Launch date: March 24, 1995
Source: United States (US)
Launch site: AIR FORCE WESTERN TEST RANGE (AFWTR)

Note: This is SATELLITE DEBRIS
aabbcc
Your satellite tracking list
Your tracking list is empty




NASA's NSSDC Master Catalog

Two Line Element Set (TLE):
1 40604U 95015FB  21260.31028527  .00003330  00000-0  61434-3 0  9993
2 40604  98.6898  36.3697 0124124 231.0627 127.9457 14.61364248340598
Source of the keplerian elements: AFSPC